Regional Weather Roundup
Issued by NWS Upton, NY

Current Version | Previous Version | Graphics & Text | Print | Product List | Glossary Off
Versions: 1 2 3 4 5 6 7 8 9 10 11 12 13 14 15 16 17 18 19 20 21 22 23 24 25 26 27 28 29 30 31 32 33 34 35 36 37 38 39 40 41 42 43 44 45 46 47 48 49 50

000
ASUS41 KOKX 020008
RWROKX

REGIONAL WEATHER ROUNDUP
NATIONAL WEATHER SERVICE NEW YORK NY
800 PM EDT MON JUN 01 2015

NOTE: "FAIR" INDICATES FEW OR NO CLOUDS BELOW 12,000 FEET WITH NO
SIGNIFICANT WEATHER AND/OR OBSTRUCTIONS TO VISIBILITY.

NYZ071-072-176-178-NJZ106-104-020100-
NEW YORK CITY METRO AREA


CITY           SKY/WX    TMP DP  RH WIND       PRES   REMARKS
CENTRAL PARK   LGT RAIN  55  52  89 E8G20     30.14S
LAGUARDIA APRT DRIZZLE   54  52  93 NE18      30.11F FOG
KENNEDY INTL   DRIZZLE   57  53  86 NE14      30.11F
NEWARK/LIBERTY LGT RAIN  55  54  94 NE15      30.11S
BRNX BOT. GARD   N/A     52  52 100 W2        30.15S
TETERBORO      LGT RAIN  55  52  89 NE8       30.11S
$$

NYZ177-179-078>081-020100-
LONG ISLAND NEW YORK

CITY           SKY/WX    TMP DP  RH WIND       PRES   REMARKS
FARMINGDALE    CLOUDY    54  51  90 E10       30.12S FOG
ISLIP          DRIZZLE   52  50  93 NE12G18   30.11R FOG
SHIRLEY        LGT RAIN  52  50  93 VRB6      30.14S FOG
WESTHAMPTON    CLOUDY    52  50  93 NE10G18   30.15R
MONTAUK POINT    N/A     52  48  86 NE14G21   30.17R
$$

NYZ052-065-067-020100-
HUDSON VALLEY

CITY           SKY/WX    TMP DP  RH WIND       PRES   REMARKS
WHITE PLAINS   DRIZZLE   52  50  93 NE8       30.12S FOG
NEWBURGH       NOT AVBL
MONTGOMERY     RAIN      53  51  93 NE7       30.15R FOG
POUGHKEEPSIE   CLOUDY    53  49  86 NE6       30.15S
ALBANY         LGT RAIN  53  49  86 CALM      30.18R
$$

NJZ001-105-106-008-010-013-015-019>022-104-020100-
NEW JERSEY

CITY           SKY/WX    TMP DP  RH WIND       PRES   REMARKS
NEWARK/LIBERTY LGT RAIN  55  54  94 NE15      30.11S
TETERBORO      LGT RAIN  55  52  89 NE8       30.11S
CALDWELL       CLOUDY    54  52  93 NE8       30.12R FOG
MORRISTOWN     LGT RAIN  61  59  94 E10G18    30.12R FOG
SOMERVILLE     LGT RAIN  56  53  90 NE6       30.08F
SUSSEX         LGT RAIN  53  51  93 NE9       30.14R FOG
ANDOVER          N/A     54  53  97 VRB3      30.12R
TRENTON        RAIN      57  56  96 E8        30.08R
MILLVILLE      TSTM      66  65  96 N8        30.04R VSB 1/2
ATLANTIC CITY  LGT RAIN  62  61  96 N10       30.05R
WRIGHTSTOWN    CLOUDY    57  57  99 NE12      30.06R FOG
TOMS RIVER     CLOUDY   N/A N/A N/A NE14G20   30.08R
BELMAR         CLOUDY    55  48  76 NE15G22   30.09S VSB 1
$$

PAZ047>061-062-071-020100-
EASTERN PENNSYLVANIA

CITY           SKY/WX    TMP DP  RH WIND       PRES   REMARKS
PHILADELPHIA   TSTM      62  58  86 NE10      30.07R FOG
ALLENTOWN      RAIN      58  56  93 E8        30.09S FOG
SCRANTON       CLOUDY    59  54  83 NE7       30.10R
$$

CTZ002-004>006-009-010-012-RIZ004-006-007-MAZ004-011-015-020100-
SOUTHERN NEW ENGLAND
 IN CT

CITY           SKY/WX    TMP DP  RH WIND       PRES   REMARKS
BRADLEY INTL   RAIN      48  45  89 NE12      30.20R FOG
HARTFORD       LGT RAIN  49  46  90 NE8G16    30.20S
DANBURY        CLOUDY    50  46  86 NE12G18   30.16S FOG
WTRBRY/OXFORD  DRIZZLE   48  43  81 NE8G17    30.17R FOG
BRIDGEPORT     CLOUDY    53  51  93 NE12      30.15S FOG
MERIDEN        CLOUDY    50  47  89 N9        30.18S FOG
NEW HAVEN      CLOUDY    51  49  92 NE13      30.16R FOG
CHESTER        CLOUDY    48  48 100 NE10      30.17S FOG
GROTON         HVY RAIN  50  47  89 NE14      30.16S FOG
WILLIMANTIC    LGT RAIN  48  44  86 NE10      30.19F

 IN RI

CITY           SKY/WX    TMP DP  RH WIND       PRES   REMARKS
PROVIDENCE     CLOUDY    49  46  90 NE15      30.21S
BLOCK ISLAND   CLOUDY    50  45  81 NE15G23   30.16F
WESTERLY       CLOUDY    49  46  90 NE13G22   30.17S

 IN MA

CITY           SKY/WX    TMP DP  RH WIND       PRES   REMARKS
BOSTON         CLOUDY    47  46  97 NE18G24   30.25F FOG
WORCESTER      LGT RAIN  44  42  93 NE14G22   30.22S FOG
WESTFIELD      LGT RAIN  48  45  89 NE6       30.22S FOG
PROVINCETOWN   CLOUDY    48  45  87 NE17G23   30.22F
NANTUCKET      LGT RAIN  53  50  89 NE16      30.16S FOG
$$

ANZ330-335-338-340-345-350-353-355-020100-
COASTAL MARINE OBSERVATIONS


STATION/POSITION TIME  SKY/WX   TEMP    WIND        PRES    VSBY  WAVE
                                AIR SEA DIR/SP/G                  HT/PER
                 (UTC)          (F)     (DEG/KT/KT) (MB)    (MI)  (FT/S)
NY HARB ENTRANCE 2250            56 60   60/ 21/ 25 1017.8          6/ 6
4S FIRE IS       2303               54                N/A           6/ 6
20S FIRE ISLAND  2350            56 60   70/ 23/ 29 1018.1          6/ 6
GREAT SOUTH BAY  2315            56 68   60/ 14/ 19   N/A
23SW MTP         2350            53 56   60/ 23/ 27 1019.4          6/ 6
HUDSON CANYON    NOT AVBL
KINGS POINT      2300            54 58   60/  8/ 11 1019.2
CENTRAL LI SOUND 2300            52 56   70/ 17/ 21   N/A
EASTERN LI SOUND 2300            51      50/ 16/ 21   N/A
ROBBINS REEF     2300            55      40/ 16/ 19 1018.4
$$


>>>>>>>>>>>>>>>>>>>>>>>>>>>> KEY <<<<<<<<<<<<<<<<<<<<<<<<<<<
>                                                          <
>     SKY/WX - SKY CONDITION/PRESENT WEATHER               <
>     TMP    - TEMPERATURE IN FAHRENHEIT                   <
>     DP     - DEWPOINT IN FAHRENHEIT                      <
>     RH     - RELATIVE HUMIDITY IN PERCENT                <
>     WIND   - DIRECTION AND SPEED IN MPH                  <
>     PRES   - MEAN SEA LEVEL PRESSURE IN INCHES OF HG     <
>     WCI    - WIND CHILL INDEX                            <
>     VSB    - VISIBILITY IN MILES                         <
>     HX     - HEAT INDEX                                  <
>     TC     - TEMPERATURE IN CELSIUS                      <
>     VRB    - VARIABLE WIND DIRECTION                     <
>                                                          <
>>>>>>>>>>>>>>>>>>>>>>>>>>>> KEY <<<<<<<<<<<<<<<<<<<<<<<<<<<




USA.gov is the U.S. government's official web portal to all federal, state and local government web resources and services.